This is the latest recevied weather packets stored in our database for station/object IZ1UQG-1. If no packets are shown the sender has not sent any weather packets the latest 10 day(s).
| Time | Temp. | Humidity | Pressure | Rain* | Wind** | Luminosity | Snow |
|---|---|---|---|---|---|---|---|
| 1777761840 | 17.22° C | 53% | 1020.9 hPa | 153.42 mm | - | - | - |
| 1777761541 | 17.22° C | 53% | 1021 hPa | 142.49 mm | - | - | - |
| 1777761241 | 17.22° C | 52% | 1020.8 hPa | 210.82 mm | - | - | - |
| 1777760941 | 17.22° C | 52% | 1020.8 hPa | 195.83 mm | - | - | - |
| 1777760641 | 17.22° C | 52% | 1020.8 hPa | 222.25 mm | - | - | - |
| 1777760341 | 17.78° C | 52% | 1020.6 hPa | 177.29 mm | - | - | - |
| 1777760041 | 17.78° C | 52% | 1020.7 hPa | 222.76 mm | - | - | - |
| 1777759741 | 17.78° C | 51% | 1020.6 hPa | 244.09 mm | - | - | - |
| 1777759441 | 17.78° C | 51% | 1020.6 hPa | 239.27 mm | - | - | - |
| 1777759141 | 17.78° C | 51% | 1020.8 hPa | 162.56 mm | - | - | - |
| 1777758841 | 17.78° C | 51% | 1020.8 hPa | 8.64 mm | - | - | - |
| 1777758541 | 17.78° C | 51% | 1020.6 hPa | 244.6 mm | - | - | - |
| 1777758241 | 17.78° C | 51% | 1020.5 hPa | 196.85 mm | - | - | - |
| 1777757941 | 17.78° C | 50% | 1020.6 hPa | 193.29 mm | - | - | - |
| 1777757641 | 18.33° C | 50% | 1020.5 hPa | 225.81 mm | - | - | - |
| 1777757341 | 18.33° C | 50% | 1020.5 hPa | 222.25 mm | - | - | - |
| 1777757041 | 18.33° C | 50% | 1020.5 hPa | 217.68 mm | - | - | - |
| 1777756741 | 18.33° C | 50% | 1020.3 hPa | 169.42 mm | - | - | - |
| 1777756441 | 18.33° C | 50% | 1020.5 hPa | 193.8 mm | - | - | - |
| 1777756141 | 18.33° C | 49% | 1020.5 hPa | 128.52 mm | - | - | - |
| 1777755841 | 18.33° C | 49% | 1020.3 hPa | 127 mm | - | - | - |
| 1777755541 | 18.89° C | 49% | 1020.5 hPa | 73.66 mm | - | - | - |
| 1777755241 | 18.89° C | 49% | 1020.2 hPa | 120.65 mm | - | - | - |
| 1777754941 | 18.89° C | 48% | 1020.3 hPa | 90.17 mm | - | - | - |
| 1777754641 | 18.89° C | 48% | 1020.3 hPa | 94.23 mm | - | - | - |
* Rain latest hour (hover to see other rain measurements)
** Current wind speed in m/s (hover to see current wind gust speed)